Regional Weather Roundup
Issued by NWS

Home | Current Version | Previous Version | Text Only | Print | Product List | Glossary Off
Versions: 1 2 3 4 5 6 7 8 9 10 11 12 13 14 15 16 17 18 19 20 21 22 23 24 25 26 27 28 29 30 31 32 33 34 35 36 37 38 39 40 41 42 43 44 45 46 47 48 49 50

000
ASUS43 KDMX 260206
RWRIA

WEATHER ROUNDUP FOR IOWA
NATIONAL WEATHER SERVICE DES MOINES IA
900 PM CDT SUN JUN 25 2017

NOTE: "FAIR" INDICATES FEW OR NO CLOUDS BELOW 12,000 FEET WITH NO
SIGNIFICANT WEATHER AND/OR OBSTRUCTIONS TO VISIBILITY.

* - THESE STATIONS ARE NOT NWS STATIONS...THUS NOT UNDER NWS
QUALITY CONTROL.  THEY ALSO DO NOT REPORT WEATHER SUCH
AS PRECIPITATION OR FOG.

IAZ001>003-012>014-020>022-031>034-043>046-260300-
   NORTHWEST IOWA

CITY           SKY/WX    TMP DP  RH WIND       PRES   REMARKS
CARROLL *      CLEAR     64  43  45 NW5       30.20S
CHEROKEE *     CLEAR     65  42  43 CALM      30.19F
DENISON *      CLEAR     66  43  42 CALM      30.22F
LE MARS *      CLEAR     64  52  63 CALM      30.19F
ORANGE CITY *  CLEAR     66  43  42 CALM      30.19F
SHELDON *      CLEAR     64  45  48 MISG      30.17F
SIOUX CITY     CLEAR     66  45  46 CALM      30.18F
SPENCER        CLEAR     64  45  49 N6        30.19F
STORM LAKE *   CLEAR     63  43  48 N5        30.20F
$$

IAZ055>058-069>071-079>083-090>094-260300-
   SOUTHWEST IOWA

CITY           SKY/WX    TMP DP  RH WIND       PRES   REMARKS
ATLANTIC *     CLEAR     64  48  55 W5        30.21S
AUDUBON *      CLEAR     63  46  55 CALM      30.22S
CLARINDA *     CLEAR     64  50  59 CALM      30.24S
COUNCIL BLFS * CLEAR     68  45  42 N3        30.22S
CRESTON *      CLEAR     64  46  52 W6        30.23S
HARLAN  *      CLEAR     61  50  67 NW6       30.25S
LAMONI         CLEAR     65  47  52 W6        30.21S
RED OAK *      CLEAR     61  52  72 N3        30.22S
SHENANDOAH *   CLEAR     64  57  77 CALM      30.22S
$$

IAZ047>049-059>061-072>074-084-260300-
   CENTRAL IOWA

CITY           SKY/WX    TMP DP  RH WIND       PRES   REMARKS
AMES           CLEAR     66  43  43 N9        30.19S
ANKENY *       CLEAR     66  43  42 NW7       30.20R
BOONE *        CLEAR     63  45  51 N7        30.19S
CHARITON *     CLEAR     66  46  48 W5        30.19S
DES MOINES     PTCLDY    67  43  41 W6        30.19S
GRINNELL*      CLEAR     62  45  53 CALM      30.19S
KNOXVILLE *    CLEAR     63  48  59 W6        30.17S
MARSHALLTOWN   CLEAR     62  43  49 NW8       30.17S
NEWTON *       CLEAR     64  43  45 NW6       30.18S
PELLA *        CLEAR     63  46  55 CALM      30.19S
PERRY *          N/A     63  45  50 NW3       30.20S
$$

IAZ004>006-015-016-023>025-035-036-260300-
   NORTH CENTRAL IOWA

CITY           SKY/WX    TMP DP  RH WIND       PRES   REMARKS
ALGONA *       MOCLDY    64  41  42 N5        30.19F
CLARION *        N/A     64  43  45 N6        30.19S
ESTHERVILLE    CLOUDY    61  46  57 NW6       30.19F
FORT DODGE *   CLEAR     64  39  39 N3        30.20S
MASON CITY     MOCLDY    61  40  45 NW9       30.19S
FOREST CITY *  CLOUDY    63  30  29 NW5       30.18S
WEBSTER CITY * CLEAR     61  45  55 N5        30.17F
IOWA FALLS *     N/A     61  45  55 NW6       30.20S
$$

IAZ007>011-017>019-026>030-037>042-050>054-066-260300-
   NORTHEAST IOWA

CITY           SKY/WX    TMP DP  RH WIND       PRES   REMARKS
CEDAR RAPIDS   CLEAR     60  46  59 NW6       30.15S
CHARLES CITY * CLEAR     61  41  48 NW8       30.16F
CLINTON *      MOCLDY    61  53  75 NW6       30.15S
DECORAH *      CLEAR     59  45  58 CALM      30.13S
DUBUQUE        CLEAR     58  47  66 W6        30.14F
MONTICELLO *   CLEAR     59  48  67 CALM      30.14S
OELWEIN *      PTCLDY    59  48  67 NW7       30.16S
WATERLOO       CLEAR     63  41  44 W7        30.15S
$$

IAZ064-065-067-068-078-260300-
   EAST CENTRAL IOWA

CITY           SKY/WX    TMP DP  RH WIND       PRES   REMARKS
DAVENPORT      CLEAR     61  50  67 NW6       30.15S
IOWA CITY      CLEAR     65  44  46 NW6       30.17S
MT. PLEASANT * CLEAR     64  43  46 W3        30.17S
MUSCATINE *    CLEAR     63  46  55 W5        30.15F
QUAD CITIES    CLEAR     63  48  58 W5        30.14F
$$

IAZ062-063-075>077-085>089-095>099-260300-
   SOUTHEAST IOWA

CITY           SKY/WX    TMP DP  RH WIND       PRES   REMARKS
BURLINGTON     CLEAR     65  45  48 W5        30.16F
FAIRFIELD *    CLEAR     64  45  48 W7        30.17S
FORT MADISON * CLEAR     64  46  52 CALM      30.18S
KEOKUK *       CLEAR     64  46  52 W5        30.17S
OSKALOOSA *      N/A     61  46  58 W6        30.18F
CENTERVILLE *    N/A     63  48  59 CALM      30.21S
OTTUMWA        CLEAR     62  45  53 W5        30.18S
WASHINGTON *   CLEAR     63  45  51 W5        30.17F
$$

ABBREVIATIONS USED IN REMARKS
   TC - TEMPERATURES IN CELSIUS
  WCI - WIND CHILL INDEX
   HX - HEAT INDEX
  VSB - VISIBILITY
$$





USA.gov is the U.S. government's official web portal to all federal, state and local government web resources and services.